HORUS 1 (55690 NORAD) Tracking and Keplerian Element Data

This shows tracking and keplerian element data for the satellite.

Feedback or suggestion? Click here.




ElementValue
Catalog55690
NameHORUS 1
Epoch Orbit455
Epoch Day85.17056515
Epoch Year2023
RAAN158.9454
Inclination97.4679
Eccentricity0.0015823
Argument of Perigee133.2043
Mean Anonmoly250.8766
Mean Motion15.23171343
Decay Rate0.00016683
L11 55690U 23025A 23085.17056515 .00016683 00000+0 70556-3 0 9994
L22 55690 97.4679 158.9454 0015823 133.2043 250.8766 15.23171343 4558



Live tracking and technical data element details for HORUS 1 (NORAD 55690). HORUS 1 can be tracked NOW for your location showing map with azimuth and elevation plus other details from your city location.







IsCatalogInMostPopularTable: catalog: 55690, numindb: 3
Update: records affected: 1



GetName: 55690 HORUS 1

Hit Count: updated at: Tue, 28 Mar 2023 03:01:17 GMT